Location: PSU-Greenbush Astrophysical Observatory
(37.5140°N, 94.9880°W)
Time: 05:24:57
(UTC-06:00)

Transit 4A - All Passes

Search period start: 20 January 2020 00:00
Search period end: 30 January 2020 00:00
Orbit: 871 x 973 km, 66.8° (Epoch: 19 January)

Date Brightness Start Highest point End Pass type
(mag) Time Alt. Az. Time Alt. Az. Time Alt. Az.
20 Jan - 06:13:42 10° SE 06:17:20 16° ESE 06:20:55 10° ENE visible
20 Jan - 07:57:00 10° SW 08:03:03 69° WNW 08:09:00 10° NNE daylight
20 Jan - 09:48:03 10° WNW 09:50:28 12° NW 09:52:52 10° NNW daylight
20 Jan - 15:17:14 10° N 15:20:28 15° NE 15:23:43 10° ENE daylight
20 Jan - 17:01:47 10° NNW 17:07:38 88° ENE 17:13:31 10° SSE daylight
20 Jan - 18:51:27 10° W 18:53:07 11° WSW 18:54:48 10° WSW visible
21 Jan - 06:21:31 10° SSE 06:26:25 26° ESE 06:31:14 10° NE visible
21 Jan - 08:06:40 10° SW 08:12:27 46° WNW 08:18:10 10° NNE daylight
21 Jan - 15:25:47 10° N 15:30:10 21° NE 15:34:32 10° E daylight
21 Jan - 17:11:11 10° NW 17:16:54 61° WSW 17:22:41 10° SSE daylight
22 Jan - 06:29:58 10° S 06:35:34 40° ESE 06:41:04 10° NE visible
22 Jan - 08:16:38 10° WSW 08:21:57 32° NW 08:27:12 10° N daylight
22 Jan - 15:34:38 10° N 15:39:45 31° NE 15:44:52 10° ESE daylight
22 Jan - 17:20:45 10° NW 17:26:07 39° WSW 17:31:31 10° S daylight
23 Jan - 06:38:49 10° SSW 06:44:47 61° ESE 06:50:38 10° NE visible
23 Jan - 08:26:56 10° W 08:31:31 22° NW 08:36:04 10° N daylight
23 Jan - 15:43:40 10° NNW 15:49:14 45° ENE 15:54:50 10° SE daylight
23 Jan - 17:30:36 10° NW 17:35:15 25° WSW 17:39:57 10° SSW daylight
24 Jan - 05:06:30 10° ESE 05:08:33 12° ESE 05:10:35 10° E visible
24 Jan - 06:47:58 10° SSW 06:54:04 88° WNW 07:00:02 10° NNE visible
24 Jan - 08:37:45 10° W 08:41:13 16° NW 08:44:40 10° N daylight
24 Jan - 14:09:06 10° NNE 14:11:12 12° NE 14:13:17 10° ENE daylight
24 Jan - 15:52:49 10° NNW 15:58:39 68° ENE 16:04:29 10° SE daylight
24 Jan - 17:40:58 10° WNW 17:44:20 16° WSW 17:47:43 10° SW daylight
25 Jan - 05:13:26 10° SSE 05:17:36 19° ESE 05:21:41 10° ENE visible
25 Jan - 06:57:27 10° SW 07:03:25 60° WNW 07:09:17 10° NNE visible
25 Jan - 08:49:37 10° NW 08:51:00 11° NW 08:52:23 10° NNW daylight
25 Jan - 14:17:14 10° N 14:20:57 17° NE 14:24:41 10° E daylight
25 Jan - 16:02:08 10° NNW 16:07:58 80° WSW 16:13:51 10° SSE daylight
26 Jan - 05:21:31 10° SSE 05:26:42 30° ESE 05:31:47 10° NE visible
26 Jan - 07:07:14 10° SW 07:12:52 40° NW 07:18:24 10° NNE daylight
26 Jan - 14:25:56 10° N 14:30:37 24° NE 14:35:18 10° ESE daylight
26 Jan - 16:11:35 10° NW 16:17:13 52° WSW 16:22:54 10° S daylight
27 Jan - 05:30:07 10° S 05:35:52 46° ESE 05:41:31 10° NE visible
27 Jan - 07:17:19 10° WSW 07:22:22 28° NW 07:27:23 10° N daylight
27 Jan - 14:34:51 10° NNW 14:40:10 35° NE 14:45:29 10° ESE daylight
27 Jan - 16:21:15 10° NW 16:26:24 33° WSW 16:31:36 10° S daylight
28 Jan - 05:39:05 10° SSW 05:45:07 71° ESE 05:51:01 10° NNE visible
28 Jan - 07:27:47 10° W 07:32:00 19° NW 07:36:11 10° N daylight
28 Jan - 14:43:56 10° NNW 14:49:37 52° ENE 14:55:20 10° SE daylight
28 Jan - 16:31:13 10° WNW 16:35:31 21° WSW 16:39:50 10° SSW daylight
29 Jan - 04:05:45 10° SE 04:08:47 14° ESE 04:11:48 10° ENE visible
29 Jan - 05:48:22 10° SSW 05:54:25 77° WNW 06:00:22 10° NNE visible
29 Jan - 07:38:50 10° WNW 07:41:43 14° NW 07:44:35 10° NNW daylight
29 Jan - 13:08:54 10° NNE 13:11:43 14° NE 13:14:32 10° ENE daylight
29 Jan - 14:53:09 10° NNW 14:58:59 79° ENE 15:04:53 10° SSE daylight
29 Jan - 16:41:58 10° WNW 16:44:34 13° WSW 16:47:11 10° SW daylight
